Location: Ellingshausen
(50.5460°N, 10.4723°E)
Time: 20:51:11
(UTC+00:00)

Cosmos 1656 Rocket - Pass Details

Date: 18 January 2026
Orbit: 794 x 843 km, 71.1° (Epoch: 16 February)

Event Time Altitude Azimuth Distance (km) Brightness Sun altitude
Rises 05:58:55 0° 209° (SSW) 3,390 6.7 -11.1°
Reaches altitude 10° 06:01:21 10° 210° (SSW) 2,458 6.0 -10.7°
Maximum altitude 06:07:02 84° 299° (WNW) 852 3.7 -9.9°
Drops below altitude 10° 06:12:42 10° 29° (NNE) 2,458 6.2 -9.0°
Sets 06:15:08 0° 30° (NNE) 3,390 6.9 -8.7°
